Skip Page Navigation
NASA JPL Caltech
NASA Logo - Jet Propulsion Laboratory + View the NASA Portal
+ Center for Near-Earth Object Studies
JPL Home Earth Solar System Stars & Galaxies Technology
JPL Solar System Dynamics
BODIES ORBITS EPHEMERIDES TOOLS PHYSICAL DATA DISCOVERY FAQ SITE MAP
JPL Small-Body Database Browser
Search: [ help ]  
201306 (2002 TL62)
Classification: Main-belt Asteroid          SPK-ID: 2201306
Ephemeris | Orbit Diagram | Orbital Elements | Mission Design | Physical Parameters | Discovery Circumstances | Close-Approach Data ]

[ show orbit diagram ]
Orbital Elements at Epoch 2459000.5 (2020-May-31.0) TDB
Reference: JPL 15 (heliocentric ecliptic J2000)
 Element Value Uncertainty (1-sigma)   Units 
e .1093861154534331 4.9428e-08  
a 3.139550664961647 3.6292e-08 au
q 2.79612741345225 1.5483e-07 au
i 4.112803731845402 5.5045e-06 deg
node 261.1147263895967 9.4963e-05 deg
peri 25.68002605378701 0.00010028 deg
M 138.3959506736967 3.4248e-05 deg
tp 2458219.374971892617
(2018-Apr-10.87497189)
0.00019145 TDB
period 2031.887557040377
5.56
3.5232e-05
9.646e-08
d
yr
n .1771751585133833 3.0722e-09 deg/d
Q 3.482973916471044 4.0262e-08 au
  Orbit Determination Parameters
   # obs. used (total)      304  
   data-arc span      6323 days (17.31 yr)  
   first obs. used      2002-10-03  
   last obs. used      2020-01-25  
   planetary ephem.      DE431  
   SB-pert. ephem.      SB431-N16  
   condition code      0  
   norm. resid. RMS      .57364  
   source      ORB  
   producer      Otto Matic  
   solution date      2020-Feb-25 00:01:34  

Additional Information
 Earth MOID = 1.78046 au 
 Jupiter MOID = 1.65997 au 
 T_jup = 3.198 
[ show covariance matrix ]

Ephemeris | Orbit Diagram | Orbital Elements | Mission Design | Physical Parameters | Discovery Circumstances | Close-Approach Data ]

Physical Parameter Table
Parameter Symbol Value Units Sigma Reference Notes
absolute magnitude H 15.2   n/a MPO454425  

201306 (2002 TL62)          Discovered 2002-Oct-03 by CINEOS at Campo Imperatore
Reference: 20081212/Numbers.arcLast Updated: 2008-12-12

[ show close-approach data ]
Alternate Designations
 2002 TL62 = 2006 JB53 
Ephemeris | Orbit Diagram | Orbital Elements | Mission Design | Physical Parameters | Discovery Circumstances | Close-Approach Data ]
ABOUT SSD CREDITS/AWARDS PRIVACY/COPYRIGHT GLOSSARY LINKS
FirstGov 2020-Sep-27 01:27 UT
(server date/time)  
NASA Home Page
Site Manager:   Ryan S. Park
Webmaster  Alan B. Chamberlin